Change the Weather History Date:

Thursday, November 29, 2012

  Actual Average Record
Temperature  
Mean Temperature 45 °F 32 °F  
Max Temperature 71 °F 45 °F 75 °F (1901)
Min Temperature 18 °F 19 °F -11 °F (1896)
Degree Days  
Heating Degree Days 20 33  
Month to date heating degree days 674 785  
Cooling Degree Days 0 0  
Month to date cooling degree days 0 0  
Year to date cooling degree days 1382 963  
Moisture  
Dew Point 14 °F    
Average Humidity 41    
Maximum Humidity 73    
Minimum Humidity 8    
Precipitation  
Precipitation 0.00 in 0.02 in 1.20 in (1908)
Sea Level Pressure  
Sea Level Pressure 30.02 in    
Wind  
Wind Speed 6 mph (WNW)    
Max Wind Speed 15 mph    
Max Gust Speed 21 mph    
Visibility 10 miles    
Events      
T = Trace of Precipitation, MM = Missing Value Source: NWS Daily Summary

Daily Weather History Graph

Daily Weather History Graph

Search for Another Location

Airport or City:

Trip Planner

Search our weather history database for the weather conditions in past years. The results will help you decide how hot, cold, wet, or windy it might be!

Date:

Astronomy

Nov. 29, 2012 Rise Set
Actual Time 6:49 AM MST 4:20 PM MST
Civil Twilight 6:18 AM MST 4:50 PM MST
Nautical Twilight 5:45 AM MST 5:24 PM MST
Astronomical Twilight 5:12 AM MST 5:57 PM MST
Moon 5:25 PM MST (11/29) 7:37 AM MST (11/29)
Length of Visible Light 10h 32m
Length of Day
9h 31m
Full, 99% of the Moon is Illuminated
Nov 29
Full
Dec 6
Last Quarter
Dec 13
New
Dec 19
First Quarter
Dec 28
Full

Hourly Weather History & Observations

Time (MST) Temp. Windchill Dew Point Humidity Pressure Visibility Wind Dir Wind Speed Gust Speed Precip Events Conditions
12:53 AM 27.0 °F 19.5 °F 14.0 °F 58% 30.04 in 10.0 mi WNW 6.9 mph - N/A   Clear
1:53 AM 24.1 °F - 12.9 °F 62% 30.04 in 10.0 mi Calm Calm - N/A   Clear
2:53 AM 19.9 °F 13.4 °F 12.9 °F 74% 30.05 in 10.0 mi WSW 4.6 mph - N/A   Clear
3:53 AM 25.0 °F 16.3 °F 14.0 °F 63% 30.02 in 10.0 mi WNW 8.1 mph - N/A   Clear
4:53 AM 25.0 °F 20.7 °F 12.9 °F 60% 30.03 in 10.0 mi WNW 3.5 mph - N/A   Clear
5:53 AM 27.0 °F 17.3 °F 14.0 °F 58% 30.06 in 10.0 mi NW 10.4 mph - N/A   Clear
6:53 AM 26.1 °F 16.2 °F 12.9 °F 58% 30.08 in 10.0 mi West 10.4 mph - N/A   Clear
7:53 AM 30.9 °F 25.2 °F 14.0 °F 50% 30.07 in 10.0 mi West 5.8 mph - N/A   Clear
8:53 AM 42.1 °F - 18.0 °F 38% 30.05 in 10.0 mi Calm Calm - N/A   Clear
9:53 AM 50.0 °F - 18.0 °F 28% 30.04 in 10.0 mi West 5.8 mph - N/A   Clear
10:53 AM 60.1 °F - 16.0 °F 18% 30.00 in 10.0 mi WNW 6.9 mph - N/A   Clear
11:53 AM 66.9 °F - 9.0 °F 10% 29.95 in 10.0 mi WSW 11.5 mph - N/A   Clear
12:53 PM 70.0 °F - 7.0 °F 9% 29.92 in 10.0 mi WSW 11.5 mph - N/A   Clear
1:53 PM 70.0 °F - 7.0 °F 9% 29.91 in 10.0 mi WNW 11.5 mph - N/A   Clear
2:53 PM 70.0 °F - 9.0 °F 9% 29.92 in 10.0 mi West 8.1 mph - N/A   Clear
3:53 PM 64.0 °F - 10.0 °F 12% 29.94 in 10.0 mi Calm Calm - N/A   Clear
4:53 PM 55.0 °F - 12.0 °F 18% 29.98 in 5.0 mi WNW 4.6 mph - N/A   Haze
5:53 PM 48.0 °F - 14.0 °F 26% 30.00 in 10.0 mi West 4.6 mph - N/A   Clear
6:53 PM 46.0 °F 41.0 °F 19.0 °F 34% 30.04 in 10.0 mi North 10.4 mph - N/A   Clear
7:53 PM 39.9 °F 35.8 °F 19.0 °F 43% 30.06 in 10.0 mi North 5.8 mph - N/A   Clear
8:53 PM 37.9 °F - 19.9 °F 48% 30.06 in 10.0 mi Calm Calm - N/A   Clear
9:53 PM 36.0 °F 33.3 °F 19.0 °F 50% 30.06 in 9.0 mi SW 3.5 mph - N/A   Clear
10:53 PM 30.0 °F - 18.0 °F 61% 30.06 in 10.0 mi Calm Calm - N/A   Clear
11:53 PM 30.9 °F 25.2 °F 19.0 °F 61% 30.05 in 10.0 mi WNW 5.8 mph - N/A   Clear